Weather History for Kansas City International, MO

Change the Weather History Date:

Friday, December 7, 2012

  Actual Average Record
Temperature  
Mean Temperature 44 °F 34 °F  
Max Temperature 47 °F 42 °F 70 °F (1894)
Min Temperature 40 °F 25 °F 0 °F (2013)
Degree Days  
Heating Degree Days 21 31  
Month to date heating degree days 95 212  
Since 1 July heating degree days 1042 1214  
Cooling Degree Days 0 0  
Month to date cooling degree days 0 0  
Year to date cooling degree days 1839 1360  
Moisture  
Dew Point 39 °F    
Average Humidity 80    
Maximum Humidity 89    
Minimum Humidity 71    
Precipitation  
Precipitation T in 0.05 in 2.08 in (1980)
Month to date precipitation T 0.41  
Year to date precipitation 20.94 37.74  
Snow  
Snow 0.00 in 0.10 in 7.30 in (2005)
Month to date snowfall 0.0 0.9  
Since 1 July snowfall T 2.3  
Snow Depth 0.00 in    
Sea Level Pressure  
Sea Level Pressure 29.90 in    
Wind  
Wind Speed 6 mph (NNE)    
Max Wind Speed 10 mph    
Max Gust Speed -    
Visibility 8 miles    
Events      
T = Trace of Precipitation, MM = Missing Value Source: NWS Daily Summary

Daily Weather History Graph

Daily Weather History Graph

Search for Another Location

Airport:

Trip Planner

Search our weather history database for the weather conditions in past years. The results will help you decide how hot, cold, wet, or windy it might be!

Date:

Astronomy

Dec. 07, 2012 Rise Set
Actual Time 7:25 AM CST 4:55 PM CST
Civil Twilight 6:55 AM CST 5:25 PM CST
Nautical Twilight 6:22 AM CST 5:58 PM CST
Astronomical Twilight 5:49 AM CST 6:31 PM CST
Moon 12:47 AM CST (12/7) 12:51 PM CST (12/7)
Length of Visible Light 10h 29m
Length of Day
9h 29m
Last Quarter, 38% of the Moon is Illuminated
Dec 7
Last Quarter
Dec 13
New
Dec 19
First Quarter
Dec 28
Full
Jan 4
Last Quarter

Hourly Weather History & Observations

Time (CST) Temp. Windchill Dew Point Humidity Pressure Visibility Wind Dir Wind Speed Gust Speed Precip Events Conditions
12:53 AM 46.0 °F 41.4 °F 39.0 °F 76% 29.91 in 10.0 mi NNE 9.2 mph - N/A   Overcast
1:25 AM 46.4 °F 41.9 °F 39.2 °F 76% 29.91 in 10.0 mi NNE 9.2 mph - N/A   Overcast
1:53 AM 45.0 °F 39.7 °F 39.0 °F 80% 29.91 in 10.0 mi NNE 10.4 mph - N/A   Overcast
2:53 AM 45.0 °F 39.7 °F 37.9 °F 76% 29.92 in 10.0 mi NNE 10.4 mph - N/A   Overcast
3:53 AM 43.0 °F 36.8 °F 39.9 °F 89% 29.92 in 6.0 mi NNE 11.5 mph - 0.00 in   Light Drizzle
4:00 AM 42.8 °F 38.0 °F 39.2 °F 87% 29.91 in 6.0 mi NNE 8.1 mph - 0.00 in   Light Drizzle
4:11 AM 42.8 °F 38.0 °F 39.2 °F 87% 29.91 in 6.0 mi NE 8.1 mph - 0.00 in   Light Drizzle
4:53 AM 43.0 °F 37.7 °F 39.9 °F 89% 29.91 in 5.0 mi NE 9.2 mph - 0.00 in   Light Drizzle
5:53 AM 43.0 °F 38.8 °F 39.9 °F 89% 29.90 in 8.0 mi NE 6.9 mph - 0.00 in   Overcast
6:53 AM 43.0 °F 39.5 °F 39.9 °F 89% 29.91 in 8.0 mi NNE 5.8 mph - N/A   Overcast
7:53 AM 43.0 °F 38.8 °F 39.9 °F 89% 29.91 in 7.0 mi NE 6.9 mph - N/A   Overcast
8:53 AM 43.0 °F 39.5 °F 39.9 °F 89% 29.92 in 6.0 mi NNE 5.8 mph - N/A   Overcast
9:53 AM 44.1 °F 42.5 °F 39.9 °F 85% 29.93 in 7.0 mi NE 3.5 mph - N/A   Overcast
10:53 AM 44.1 °F 40.8 °F 39.9 °F 85% 29.92 in 8.0 mi North 5.8 mph - N/A   Overcast
11:53 AM 45.0 °F 41.2 °F 39.9 °F 82% 29.89 in 9.0 mi NNE 6.9 mph - N/A   Overcast
12:44 PM 46.4 °F 44.3 °F 39.2 °F 76% 29.86 in 10.0 mi ENE 4.6 mph - N/A   Overcast
12:53 PM 46.0 °F - 39.9 °F 79% 29.87 in 10.0 mi Calm Calm - N/A   Overcast
1:44 PM 46.4 °F - 39.2 °F 76% 29.86 in 9.0 mi Calm Calm - N/A   Overcast
1:53 PM 46.0 °F - 39.9 °F 79% 29.87 in 9.0 mi Calm Calm - N/A   Overcast
2:53 PM 46.9 °F - 39.9 °F 77% 29.86 in 10.0 mi North 3.5 mph - N/A   Overcast
3:53 PM 46.0 °F 43.1 °F 39.0 °F 76% 29.88 in 10.0 mi North 5.8 mph - N/A   Overcast
4:53 PM 46.0 °F 43.9 °F 39.0 °F 76% 29.89 in 10.0 mi North 4.6 mph - N/A   Overcast
5:53 PM 46.0 °F 43.1 °F 37.9 °F 73% 29.89 in 10.0 mi NNE 5.8 mph - N/A   Overcast
6:53 PM 44.6 °F 41.4 °F 37.4 °F 76% 29.90 in 10.0 mi NNE 5.8 mph - N/A   Overcast
7:53 PM 45.0 °F 41.8 °F 37.9 °F 76% 29.91 in 10.0 mi NE 5.8 mph - N/A   Overcast
8:53 PM 44.1 °F 40.8 °F 37.9 °F 79% 29.90 in 9.0 mi East 5.8 mph - 0.00 in   Overcast
9:53 PM 43.0 °F 40.3 °F 39.0 °F 86% 29.93 in 9.0 mi NNW 4.6 mph - 0.00 in   Overcast
10:53 PM 41.0 °F 39.0 °F 37.9 °F 89% 29.94 in 7.0 mi NW 3.5 mph - N/A   Overcast
11:53 PM 39.9 °F 36.7 °F 37.9 °F 93% 29.96 in 4.0 mi NNW 4.6 mph - N/A   Mostly Cloudy